TimePDT,TemperatureF,Dew PointF,Humidity,Sea Level PressureIn,VisibilityMPH,Wind Direction,Wind SpeedMPH,Gust SpeedMPH,PrecipitationIn,Events,Conditions,WindDirDegrees,DateUTC
12:15 AM,51.8,44.6,76,30.16,10.0,NE,4.6,-,N/A,,Clear,40,2012-09-23 07:15:00
12:35 AM,51.8,44.6,76,30.15,10.0,NE,3.5,-,N/A,,Clear,40,2012-09-23 07:35:00
12:55 AM,50.0,42.8,76,30.16,10.0,NE,3.5,-,N/A,,Clear,50,2012-09-23 07:55:00
1:15 AM,48.2,41.0,76,30.16,10.0,NE,3.5,-,N/A,,Partly Cloudy,50,2012-09-23 08:15:00
1:35 AM,50.0,42.8,76,30.17,10.0,NE,5.8,-,N/A,,Mostly Cloudy,40,2012-09-23 08:35:00
1:55 AM,50.0,42.8,76,30.17,10.0,NE,4.6,-,N/A,,Overcast,50,2012-09-23 08:55:00
2:15 AM,51.8,42.8,71,30.16,10.0,NE,5.8,-,N/A,,Mostly Cloudy,40,2012-09-23 09:15:00
2:35 AM,51.8,42.8,71,30.15,10.0,NE,5.8,-,N/A,,Partly Cloudy,50,2012-09-23 09:35:00
2:55 AM,51.8,41.0,67,30.16,10.0,NE,6.9,-,N/A,,Clear,40,2012-09-23 09:55:00
3:15 AM,51.8,41.0,67,30.16,10.0,NNE,6.9,-,N/A,,Clear,30,2012-09-23 10:15:00
3:35 AM,50.0,39.2,66,30.16,10.0,NE,5.8,-,N/A,,Clear,40,2012-09-23 10:35:00
3:55 AM,50.0,41.0,71,30.17,10.0,NE,5.8,-,N/A,,Clear,40,2012-09-23 10:55:00
4:15 AM,48.2,39.2,71,30.17,10.0,NE,3.5,-,N/A,,Clear,50,2012-09-23 11:15:00
4:35 AM,48.2,41.0,76,30.16,10.0,NE,4.6,-,N/A,,Clear,40,2012-09-23 11:35:00
4:55 AM,44.6,35.6,71,30.16,10.0,Calm,Calm,-,N/A,,Clear,0,2012-09-23 11:55:00
5:15 AM,48.2,41.0,76,30.16,10.0,NE,4.6,-,N/A,,Clear,50,2012-09-23 12:15:00
5:35 AM,48.2,41.0,76,30.16,10.0,NE,4.6,-,N/A,,Clear,50,2012-09-23 12:35:00
5:55 AM,44.6,35.6,71,30.16,10.0,Calm,Calm,-,N/A,,Mostly Cloudy,0,2012-09-23 12:55:00
6:15 AM,42.8,37.4,81,30.16,10.0,Calm,Calm,-,N/A,,Partly Cloudy,0,2012-09-23 13:15:00
6:35 AM,44.6,37.4,76,30.16,10.0,NE,3.5,-,N/A,,Clear,50,2012-09-23 13:35:00
6:55 AM,42.8,35.6,76,30.17,10.0,Calm,Calm,-,N/A,,Clear,0,2012-09-23 13:55:00
7:15 AM,42.8,37.4,81,30.18,10.0,Calm,Calm,-,N/A,,Clear,0,2012-09-23 14:15:00
7:35 AM,42.8,37.4,81,30.19,10.0,South,3.5,-,N/A,,Clear,180,2012-09-23 14:35:00
7:55 AM,44.6,39.2,81,30.18,10.0,Calm,Calm,-,N/A,,Clear,0,2012-09-23 14:55:00
8:15 AM,48.2,42.8,82,30.18,10.0,Calm,Calm,-,N/A,,Clear,0,2012-09-23 15:15:00
8:35 AM,50.0,42.8,76,30.19,10.0,Calm,Calm,-,N/A,,Clear,0,2012-09-23 15:35:00
8:55 AM,53.6,44.6,72,30.19,10.0,Calm,Calm,-,N/A,,Clear,0,2012-09-23 15:55:00
9:15 AM,55.4,44.6,67,30.20,10.0,Calm,Calm,-,N/A,,Clear,0,2012-09-23 16:15:00
9:35 AM,55.4,44.6,67,30.20,10.0,Calm,Calm,-,N/A,,Clear,0,2012-09-23 16:35:00
9:55 AM,57.2,44.6,63,30.18,10.0,Calm,Calm,-,N/A,,Clear,0,2012-09-23 16:55:00
10:15 AM,60.8,44.6,55,30.18,10.0,Calm,Calm,-,N/A,,Clear,0,2012-09-23 17:15:00
10:35 AM,60.8,44.6,55,30.19,10.0,Calm,Calm,-,N/A,,Clear,0,2012-09-23 17:35:00
10:55 AM,60.8,44.6,55,30.19,10.0,WNW,3.5,-,N/A,,Clear,300,2012-09-23 17:55:00
11:15 AM,62.6,46.4,55,30.18,10.0,North,5.8,-,N/A,,Clear,350,2012-09-23 18:15:00
11:35 AM,62.6,46.4,55,30.18,10.0,Calm,Calm,-,N/A,,Clear,0,2012-09-23 18:35:00
11:55 AM,62.6,46.4,55,30.18,10.0,ENE,9.2,-,N/A,,Clear,60,2012-09-23 18:55:00
12:15 PM,64.4,46.4,52,30.18,10.0,NNE,8.1,-,N/A,,Clear,30,2012-09-23 19:15:00
12:35 PM,64.4,46.4,52,30.19,10.0,NE,6.9,-,N/A,,Clear,50,2012-09-23 19:35:00
12:55 PM,62.6,46.4,55,30.18,10.0,ENE,8.1,-,N/A,,Clear,60,2012-09-23 19:55:00
1:15 PM,64.4,46.4,52,30.18,10.0,North,8.1,-,N/A,,Clear,10,2012-09-23 20:15:00
1:35 PM,64.4,46.4,52,30.17,10.0,NNE,10.4,-,N/A,,Clear,30,2012-09-23 20:35:00
1:55 PM,64.4,46.4,52,30.16,10.0,NE,5.8,-,N/A,,Clear,50,2012-09-23 20:55:00
2:15 PM,64.4,46.4,52,30.16,10.0,NE,5.8,-,N/A,,Clear,40,2012-09-23 21:15:00
2:35 PM,64.4,46.4,52,30.14,10.0,NE,9.2,-,N/A,,Clear,50,2012-09-23 21:35:00
2:55 PM,64.4,46.4,52,30.14,10.0,NNW,3.5,-,N/A,,Clear,340,2012-09-23 21:55:00
3:15 PM,64.4,46.4,52,30.14,10.0,NE,5.8,-,N/A,,Clear,50,2012-09-23 22:15:00
3:35 PM,64.4,46.4,52,30.14,10.0,ENE,5.8,-,N/A,,Clear,60,2012-09-23 22:35:00
3:55 PM,66.2,46.4,49,30.14,10.0,NNE,4.6,-,N/A,,Clear,30,2012-09-23 22:55:00
4:15 PM,64.4,46.4,52,30.14,10.0,ENE,3.5,-,N/A,,Clear,60,2012-09-23 23:15:00
4:35 PM,66.2,46.4,49,30.14,10.0,NNE,5.8,-,N/A,,Clear,20,2012-09-23 23:35:00
4:55 PM,66.2,46.4,49,30.14,10.0,North,5.8,-,N/A,,Clear,10,2012-09-23 23:55:00
5:15 PM,64.4,46.4,52,30.15,10.0,NNE,8.1,-,N/A,,Clear,30,2012-09-24 00:15:00
5:35 PM,64.4,46.4,52,30.15,10.0,NE,6.9,-,N/A,,Clear,40,2012-09-24 00:35:00
5:55 PM,64.4,46.4,52,30.15,10.0,NE,6.9,-,N/A,,Clear,50,2012-09-24 00:55:00
6:15 PM,62.6,46.4,55,30.15,10.0,ENE,5.8,-,N/A,,Clear,60,2012-09-24 01:15:00
6:35 PM,62.6,46.4,55,30.15,10.0,NE,5.8,-,N/A,,Clear,50,2012-09-24 01:35:00
6:55 PM,60.8,46.4,59,30.16,10.0,ENE,3.5,-,N/A,,Clear,60,2012-09-24 01:55:00
7:15 PM,59.0,46.4,63,30.15,10.0,Calm,Calm,-,N/A,,Clear,0,2012-09-24 02:15:00
7:35 PM,55.4,44.6,67,30.16,10.0,Calm,Calm,-,N/A,,Clear,0,2012-09-24 02:35:00
7:55 PM,53.6,44.6,72,30.16,10.0,Calm,Calm,-,N/A,,Clear,0,2012-09-24 02:55:00
8:15 PM,51.8,44.6,76,30.16,10.0,Calm,Calm,-,N/A,,Clear,0,2012-09-24 03:15:00
8:35 PM,50.0,41.0,71,30.17,10.0,Calm,Calm,-,N/A,,Clear,0,2012-09-24 03:35:00
8:55 PM,51.8,42.8,71,30.16,10.0,Calm,Calm,-,N/A,,Clear,0,2012-09-24 03:55:00
9:15 PM,50.0,42.8,76,30.17,10.0,Calm,Calm,-,N/A,,Clear,0,2012-09-24 04:15:00
9:35 PM,50.0,42.8,76,30.16,10.0,Calm,Calm,-,N/A,,Clear,0,2012-09-24 04:35:00
9:55 PM,48.2,42.8,82,30.16,10.0,Calm,Calm,-,N/A,,Clear,0,2012-09-24 04:55:00
10:15 PM,48.2,42.8,82,30.17,10.0,Calm,Calm,-,N/A,,Clear,0,2012-09-24 05:15:00
10:35 PM,48.2,42.8,82,30.17,10.0,Calm,Calm,-,N/A,,Clear,0,2012-09-24 05:35:00
10:55 PM,48.2,41.0,76,30.16,10.0,Calm,Calm,-,N/A,,Clear,0,2012-09-24 05:55:00
11:15 PM,46.4,39.2,76,30.16,10.0,Calm,Calm,-,N/A,,Clear,0,2012-09-24 06:15:00
11:55 PM,46.4,41.0,81,30.15,10.0,Calm,Calm,-,N/A,,Clear,0,2012-09-24 06:55:00